Regional Weather Roundup
Issued by NWS

Home | Current Version | Previous Version | Text Only | Print | Product List | Glossary On
Versions: 1 2 3 4 5 6 7 8 9 10 11 12 13 14 15 16 17 18 19 20 21 22 23 24 25 26 27 28 29 30 31 32 33 34 35 36 37 38 39 40 41 42 43 44 45 46 47 48 49 50
000
ASUS44 KFWD 042210
RWRTX
NORTH TEXAS HOURLY WEATHER ROUNDUP
NATIONAL WEATHER SERVICE FORT WORTH TX
500 PM CDT TUE AUG 04 2015

NOTE: "FAIR" INDICATES FEW OR NO CLOUDS BELOW 12,000 FEET WITH NO
SIGNIFICANT WEATHER AND/OR OBSTRUCTIONS TO VISIBILITY.

TXZ118-119-042300-
DALLAS/FORT WORTH METROPLEX

CITY           SKY/WX    TMP DP  RH WIND       PRES   REMARKS
DFW AIRPORT    PTSUNNY   98  61  29 SE10      29.88F HX  98
DALLAS LOVE    MOSUNNY   98  61  29 SE7G21    29.88F HX  98
FTW MEACHAM    SUNNY     99  61  28 S8        29.89F HX  99
DAL-EXECUTIVE  MOSUNNY   97  62  31 VRB7G17   29.89F HX  98
FTW-ALLIANCE   MOSUNNY   99  61  28 SE10      29.89F HX  99
FTW-NAS-JRB    MOSUNNY   98  63  31 S5        29.89F HX 100
FTW-SPINKS     MOSUNNY   99  61  28 S10       29.91F HX  99
ARLINGTON      SUNNY     97  62  31 SE9       29.89F HX  98
GRAND PRAIRIE  SUNNY     97  64  34 S7        29.90F HX  99
ADDISON        MOSUNNY   97  59  28 S12G23    29.90F HX  96
MESQUITE       SUNNY     97  61  30 SE10      29.90F HX  97
LANCASTER      MOSUNNY   98  58  26 SE12      29.90F HX  97
$$

TXZ091>094-102>105-117-120-121-131>134-042300-
NORTH CENTRAL TEXAS

CITY           SKY/WX    TMP DP  RH WIND       PRES   REMARKS
SHRMAN/DENISON MOSUNNY   97  66  36 S12G20    29.91F HX 100
GAINESVILLE    PTSUNNY   93  64  38 SE10      29.92S HX  95
BOWIE          MOSUNNY   92  64  39 S7        29.90F HX  94
DECATUR        SUNNY     95  61  32 S10G18    29.91F HX  95
DENTON         SUNNY     97  63  32 SE13G22   29.89F HX  98
MCKINNEY       MOSUNNY   96  60  30 SE12      29.90F HX  96
GREENVILLE     SUNNY     99  55  23 SE13      29.91S HX  97
ROCKWALL       MOSUNNY   97  64  33 S7G17     29.89F HX  99
TERRELL        SUNNY     97  59  28 S12       29.91F HX  96
WAXAHACHIE     MOSUNNY   98  65  33 S10       29.91F HX 101
CLEBURNE       SUNNY     99  63  30 S7G15     29.92S HX 100
GRANBURY       MOSUNNY  100  62  28 S10       29.90S HX 101
$$

TXZ083>090-098>101-113>116-127>130-139>142-154-155-042300-
WESTERN NORTH TEXAS

CITY           SKY/WX    TMP DP  RH WIND       PRES   REMARKS
WICHITA FALLS  MOSUNNY   94  68  42 S13       29.88F HX  98
WF-KICKAPOO    MOSUNNY   97  62  31 S12       29.90F HX  98
VERNON         SUNNY     94  61  33 S10G18    29.89F HX  94
ABILENE        MOSUNNY   98  64  32 SE15G21   29.92F HX 100
ABILENE-DYESS  PTSUNNY   96  65  35 S12       29.90F HX  98
BRECKENRIDGE   MOSUNNY   98  61  29 SE8       29.90S HX  98
GRAHAM         MOSUNNY   97  67  37 SE9G16    29.88F HX 101
MINERAL WELLS  MOSUNNY   95  65  37 SE6       29.89F HX  97
STEPHENVILLE   MOSUNNY   95  61  31 SE6       29.95S HX  95
COMANCHE       MOSUNNY   98  63  31 S6        29.92F HX  99
COLEMAN        MOSUNNY   96  64  34 SE6G16    29.93S HX  99
BRADY          SUNNY    100  59  25 SE10      29.92F HX 100
$$

TXZ143>147-156>162-174-175-042300-
CENTRAL TEXAS

CITY           SKY/WX    TMP DP  RH WIND       PRES   REMARKS
WACO           SUNNY     99  66  33 S10       29.89F HX 103
WACO-TSTC      MOSUNNY   99  64  32 S14       29.89F HX 101
HILLSBORO      MOSUNNY   98  62  30 S9        29.90F HX  99
CORSICANA      MOSUNNY   97  67  37 VRB6G18   29.92S HX 101
MEXIA          MOSUNNY   97  67  38 E16G24    29.90F HX 101
HEARNE         MOSUNNY   94  71  46 S6        29.91F HX 100
CAMERON        SUNNY     98  68  37 S10       29.89F HX 103
TEMPLE         MOSUNNY   99  66  34 SE15      29.90F HX 102
KILLEEN        SUNNY     97  66  35 SE14      29.89F HX 100
KILLEEN-SKYLRK SUNNY     97  66  36 SE8       29.89F HX 100
FORT HOOD      SUNNY     98  67  37 SE16      29.89F HX 102
GATESVILLE     SUNNY     99  64  32 S8        29.92S HX 101
HAMILTON       MOSUNNY   99  60  27 SE7       29.92F HX  99
$$

TXZ095>097-106>112-122>126-135>138-148>153-164>167-042300-
EAST TEXAS

CITY           SKY/WX    TMP DP  RH WIND       PRES   REMARKS
PARIS          PTSUNNY   93  66  40 E6        29.91F HX  96
SULPHUR SPRNGS MOSUNNY   97  60  29 S9        29.93F HX  97
MOUNT PLEASANT MOSUNNY   96  60  30 S7        29.92S HX  96
GILMER         SUNNY     97  62  31 S8        29.91S HX  97
MINEOLA        SUNNY     97  55  24 S6        29.92F HX  95
TYLER          PTSUNNY   98  64  32 S9        29.92F HX 100
LONGVIEW       MOSUNNY   98  63  31 S13       29.91F HX 100
MARSHALL       MOSUNNY  100  60  27 SW7       29.93F HX 100
ATHENS         SUNNY     95  63  34 S10       29.91S HX  96
PALESTINE      SUNNY     96  63  32 CALM      29.92F HX  97
JACKSONVILLE   SUNNY     97  55  24 CALM      29.95F HX  95
HENDERSON      SUNNY     97  62  31 MISG      29.92F HX  98
CENTER         FAIR     100  59  26 S8        29.92S HX  99
NACOGDOCHES    SUNNY     93  70  46 SE8       29.92S HX  99
LUFKIN         SUNNY     97  65  34 S9        29.91F HX  99
$$

SUPPLEMENTAL OBSERVATIONS (CENTRAL)

CITY           SKY/WX    TMP DP  RH WIND       PRES   REMARKS
CADDO GRASSLND   N/A     99  66  34 S6          N/A  HX 102
PAT MAYSE LAKE   N/A     93  68  43 NE6         N/A  HX  97
GREENVILLE       N/A    N/A N/A N/A S8          N/A
CEDAR HILL       N/A     99  63  30 S8          N/A  HX 100
MCGREGOR         N/A     99  64  32 SE12G20     N/A  HX 101
TEMPLE           N/A     99  66  34 S10         N/A  HX 102
$$

SUPPLEMENTAL OBSERVATIONS (WEST)

CITY           SKY/WX    TMP DP  RH WIND       PRES   REMARKS
MILLERS CREEK    N/A     97  66  36 S8          N/A  HX 100
POSSUM KINGDOM   N/A     97  64  34 SE9         N/A  HX  99
LBJ GRASSLAND    N/A     99  66  34 S8          N/A  HX 102
GRANBURY         N/A    100  63  28 S12         N/A  HX 102
HAMBY            N/A     97  61  30 S10         N/A  HX  97
IVIE RESERVOIR   N/A    100  59  25 S7G15       N/A  HX 100
COLORADO BEND    N/A    N/A N/A N/A S9G20       N/A
$$

SUPPLEMENTAL OBSERVATIONS (EAST)

CITY           SKY/WX    TMP DP  RH WIND       PRES   REMARKS
CLARKSVILLE      N/A     95  68  41 SE3         N/A  HX  99
TEXARKANA        N/A     99  68  36 SE2         N/A  HX 104
LINDEN           N/A    N/A N/A N/A S3          N/A
GILMER           N/A    N/A N/A N/A S6G14       N/A
HENDERSON        N/A    N/A N/A N/A S9          N/A
LUFKIN           N/A     99  64  32 MISG        N/A  HX 101
N SABINE NF      N/A    100  68  34 MISG        N/A  HX 106
S SABINE NF      N/A     97  66  36 CALM        N/A  HX 100
$$

SUPPLEMENTAL OBSERVATIONS ARE A COLLECTION OF AUTOMATED INSTRUMENTS
THAT ARE MAINTAINED BY A VARIETY OF FEDERAL AND STATE AGENCIES.
CERTAIN ELEMENTS...SUCH AS HUMIDITY VALUES AND SUSTAINED WIND
SPEEDS...MAY BE APPROXIMATED.



USA.gov is the U.S. government's official web portal to all federal, state and local government web resources and services.